| time (UTC) | temp F | wind direction | speed MPH | gust MPH | rain 1hr in | rain 24hr in | rain mn in | humidity % | barometer mb |
| 20260509230027 | 89 | 21 | 1.0 | 4.0 | 0.00 | 0.00 | 0.00 | 60 | 1006.9 |
| 20260509225502 | 89 | 51 | 1.0 | 2.0 | 0.00 | 0.00 | 0.00 | 59 | 1006.8 |
| 20260509225004 | 89 | 348 | 1.0 | 4.0 | 0.00 | 0.00 | 0.00 | 59 | 1006.7 |
| 20260509224517 | 90 | 334 | 2.0 | 4.0 | 0.00 | 0.00 | 0.00 | 58 | 1006.7 |
| 20260509224002 | 91 | 348 | 2.0 | 4.0 | 0.00 | 0.00 | 0.00 | 58 | 1006.7 |
| 20260509223501 | 91 | 3 | 1.0 | 4.0 | 0.00 | 0.00 | 0.00 | 57 | 1006.8 |
| 20260509223023 | 91 | 299 | 1.0 | 4.0 | 0.00 | 0.00 | 0.00 | 57 | 1006.8 |
| 20260509222004 | 90 | 293 | 2.0 | 5.0 | 0.00 | 0.00 | 0.00 | 56 | 1006.7 |
| 20260509221516 | 91 | 334 | 2.0 | 5.0 | 0.00 | 0.00 | 0.00 | 57 | 1006.6 |
| 20260509221004 | 91 | 297 | 2.0 | 5.0 | 0.00 | 0.00 | 0.00 | 55 | 1006.7 |
| 20260509220503 | 91 | 314 | 1.0 | 3.0 | 0.00 | 0.00 | 0.00 | 57 | 1006.7 |
| 20260509220027 | 90 | 11 | 1.0 | 4.0 | 0.00 | 0.00 | 0.00 | 58 | 1006.6 |
| 20260509215502 | 90 | 26 | 1.0 | 4.0 | 0.00 | 0.00 | 0.00 | 60 | 1006.7 |
| 20260509215002 | 90 | 195 | 2.0 | 4.0 | 0.00 | 0.00 | 0.00 | 57 | 1006.6 |
| 20260509214003 | 90 | 35 | 1.0 | 3.0 | 0.00 | 0.00 | 0.00 | 55 | 1006.6 |
| 20260509213027 | 89 | 33 | 1.0 | 3.0 | 0.00 | 0.00 | 0.00 | 57 | 1006.8 |
| 20260509212502 | 90 | 353 | 2.0 | 4.0 | 0.00 | 0.00 | 0.00 | 55 | 1006.8 |
| 20260509211517 | 90 | 339 | 2.0 | 4.0 | 0.00 | 0.00 | 0.00 | 57 | 1006.8 |
| 20260509210024 | 90 | 23 | 2.0 | 4.0 | 0.00 | 0.00 | 0.00 | 59 | 1007.0 |
| 20260509205501 | 89 | 2 | 2.0 | 4.0 | 0.00 | 0.00 | 0.00 | 58 | 1007.1 |
| 20260509205002 | 90 | 264 | 2.0 | 6.0 | 0.00 | 0.00 | 0.00 | 58 | 1007.2 |
| 20260509204515 | 90 | 358 | 2.0 | 6.0 | 0.00 | 0.00 | 0.00 | 59 | 1007.2 |
| 20260509204002 | 91 | 348 | 3.0 | 6.0 | 0.00 | 0.00 | 0.00 | 60 | 1007.4 |
| 20260509203502 | 90 | 81 | 2.0 | 6.0 | 0.00 | 0.00 | 0.00 | 62 | 1007.4 |
| 20260509203029 | 89 | 23 | 2.0 | 3.0 | 0.00 | 0.00 | 0.00 | 61 | 1007.5 |
| 20260509202501 | 88 | 179 | 1.0 | 3.0 | 0.00 | 0.00 | 0.00 | 59 | 1007.5 |
| 20260509202001 | 89 | 237 | 1.0 | 3.0 | 0.00 | 0.00 | 0.00 | 61 | 1007.5 |
| 20260509201515 | 89 | 247 | 1.0 | 5.0 | 0.00 | 0.00 | 0.00 | 61 | 1007.6 |
| 20260509201002 | 89 | 222 | 2.0 | 5.0 | 0.00 | 0.00 | 0.00 | 60 | 1007.7 |
| 20260509200500 | 89 | 247 | 1.0 | 4.0 | 0.00 | 0.00 | 0.00 | 61 | 1007.7 |
| 20260509195500 | 89 | 267 | 2.0 | 4.0 | 0.00 | 0.00 | 0.00 | 60 | 1007.9 |
| 20260509195003 | 87 | 2 | 2.0 | 5.0 | 0.00 | 0.00 | 0.00 | 64 | 1007.9 |
| 20260509194515 | 88 | 287 | 2.0 | 5.0 | 0.00 | 0.00 | 0.00 | 61 | 1007.9 |
| 20260509194002 | 88 | 293 | 2.0 | 6.0 | 0.00 | 0.00 | 0.00 | 62 | 1008.0 |
| 20260509193501 | 87 | 280 | 1.0 | 6.0 | 0.00 | 0.00 | 0.00 | 63 | 1008.0 |
| 20260509193026 | 87 | 273 | 2.0 | 5.0 | 0.00 | 0.00 | 0.00 | 62 | 1008.0 |
| 20260509192501 | 89 | 142 | 2.0 | 5.0 | 0.00 | 0.00 | 0.00 | 59 | 1008.1 |
| 20260509192001 | 89 | 11 | 2.0 | 4.0 | 0.00 | 0.00 | 0.00 | 62 | 1008.1 |
| 20260509191515 | 87 | 353 | 1.0 | 4.0 | 0.00 | 0.00 | 0.00 | 63 | 1008.2 |
| 20260509191001 | 88 | 358 | 1.0 | 4.0 | 0.00 | 0.00 | 0.00 | 66 | 1008.2 |
| 20260509190026 | 88 | 227 | 2.0 | 5.0 | 0.00 | 0.00 | 0.00 | 64 | 1008.2 |
| 20260509185459 | 87 | 300 | 2.0 | 4.0 | 0.00 | 0.00 | 0.00 | 66 | 1008.2 |
| 20260509185000 | 86 | 243 | 2.0 | 5.0 | 0.00 | 0.00 | 0.00 | 65 | 1008.3 |
| 20260509184514 | 86 | 191 | 2.0 | 5.0 | 0.00 | 0.00 | 0.00 | 64 | 1008.4 |
| 20260509183500 | 85 | 164 | 2.0 | 5.0 | 0.00 | 0.00 | 0.00 | 67 | 1008.6 |
| 20260509183023 | 85 | 146 | 2.0 | 6.0 | 0.00 | 0.00 | 0.00 | 66 | 1008.7 |
| 20260509182459 | 84 | 171 | 2.0 | 6.0 | 0.00 | 0.00 | 0.00 | 67 | 1008.7 |
| 20260509182000 | 84 | 206 | 3.0 | 6.0 | 0.00 | 0.00 | 0.00 | 68 | 1008.8 |
| 20260509181514 | 85 | 190 | 2.0 | 6.0 | 0.00 | 0.00 | 0.00 | 66 | 1008.9 |
| 20260509181001 | 85 | 166 | 2.0 | 4.0 | 0.00 | 0.00 | 0.00 | 67 | 1009.1 |
| 20260509180500 | 84 | 342 | 3.0 | 8.0 | 0.00 | 0.00 | 0.00 | 69 | 1009.1 |
| 20260509180023 | 83 | 195 | 2.0 | 8.0 | 0.00 | 0.00 | 0.00 | 70 | 1009.1 |
| 20260509175459 | 83 | 159 | 2.0 | 8.0 | 0.00 | 0.00 | 0.00 | 71 | 1009.2 |
| 20260509175000 | 83 | 175 | 3.0 | 8.0 | 0.00 | 0.00 | 0.00 | 69 | 1009.3 |
| 20260509174001 | 84 | 164 | 4.0 | 8.0 | 0.00 | 0.00 | 0.00 | 70 | 1009.3 |
| 20260509173023 | 84 | 181 | 3.0 | 11.0 | 0.00 | 0.00 | 0.00 | 71 | 1009.4 |
| 20260509172459 | 83 | 150 | 4.0 | 8.0 | 0.00 | 0.00 | 0.00 | 72 | 1009.4 |
| 20260509171515 | 83 | 195 | 3.0 | 10.0 | 0.00 | 0.00 | 0.00 | 75 | 1009.4 |
| 20260509171002 | 82 | 100 | 3.0 | 8.0 | 0.00 | 0.00 | 0.00 | 76 | 1009.4 |
| 20260509170025 | 82 | 132 | 3.0 | 6.0 | 0.00 | 0.00 | 0.00 | 77 | 1009.4 |
| 20260509165501 | 81 | 91 | 2.0 | 5.0 | 0.00 | 0.00 | 0.00 | 78 | 1009.4 |
| 20260509165001 | 80 | 171 | 2.0 | 5.0 | 0.00 | 0.00 | 0.00 | 79 | 1009.3 |
| 20260509164515 | 80 | 184 | 1.0 | 3.0 | 0.00 | 0.00 | 0.00 | 81 | 1009.4 |
| 20260509164000 | 79 | 137 | 0.0 | 2.0 | 0.00 | 0.00 | 0.00 | 81 | 1009.6 |
| 20260509163500 | 79 | 246 | 0.0 | 1.0 | 0.00 | 0.00 | 0.00 | 81 | 1009.6 |
| 20260509163025 | 78 | 246 | 0.0 | 1.0 | 0.00 | 0.00 | 0.00 | 81 | 1009.6 |
| 20260509162500 | 78 | 246 | 0.0 | 1.0 | 0.00 | 0.00 | 0.00 | 82 | 1009.8 |
| 20260509162002 | 78 | 246 | 0.0 | 1.0 | 0.00 | 0.00 | 0.00 | 82 | 1009.9 |
| 20260509161516 | 78 | 246 | 0.0 | 2.0 | 0.00 | 0.00 | 0.00 | 82 | 1009.9 |
| 20260509161002 | 78 | 246 | 1.0 | 4.0 | 0.00 | 0.00 | 0.00 | 82 | 1009.9 |
| 20260509160501 | 79 | 312 | 1.0 | 4.0 | 0.00 | 0.00 | 0.00 | 82 | 1009.9 |
| 20260509160026 | 78 | 54 | 1.0 | 3.0 | 0.00 | 0.00 | 0.00 | 82 | 1009.8 |
| 20260509155500 | 78 | 8 | 1.0 | 3.0 | 0.00 | 0.00 | 0.00 | 82 | 1009.8 |
| 20260509155000 | 78 | 320 | 2.0 | 3.0 | 0.00 | 0.00 | 0.00 | 82 | 1009.8 |
| 20260509154514 | 78 | 3 | 2.0 | 3.0 | 0.00 | 0.00 | 0.00 | 82 | 1009.8 |
| 20260509153026 | 78 | 73 | 0.0 | 2.0 | 0.00 | 0.00 | 0.00 | 84 | 1009.8 |
| 20260509152459 | 77 | 73 | 1.0 | 2.0 | 0.00 | 0.00 | 0.00 | 84 | 1009.9 |
| 20260509152000 | 77 | 208 | 1.0 | 3.0 | 0.00 | 0.00 | 0.00 | 84 | 1009.9 |
| 20260509151514 | 77 | 82 | 0.0 | 3.0 | 0.00 | 0.00 | 0.00 | 84 | 1009.8 |
| 20260509151001 | 77 | 31 | 0.0 | 2.0 | 0.00 | 0.00 | 0.00 | 84 | 1009.9 |
| 20260509150022 | 77 | 31 | 0.0 | 2.0 | 0.00 | 0.00 | 0.00 | 85 | 1009.7 |
| 20260509145500 | 77 | 16 | 1.0 | 2.0 | 0.00 | 0.00 | 0.00 | 85 | 1009.5 |
| 20260509144514 | 77 | 137 | 0.0 | 3.0 | 0.00 | 0.00 | 0.00 | 87 | 1009.2 |
| 20260509142501 | 76 | 348 | 0.0 | 2.0 | 0.00 | 0.00 | 0.00 | 90 | 1009.4 |
| 20260509142000 | 76 | 148 | 0.0 | 2.0 | 0.00 | 0.00 | 0.00 | 90 | 1009.2 |
| 20260509141514 | 76 | 141 | 0.0 | 2.0 | 0.00 | 0.00 | 0.00 | 90 | 1009.0 |
| 20260509140956 | 76 | 139 | 0.0 | 2.0 | 0.00 | 0.00 | 0.00 | 90 | 1008.9 |
| 20260509140456 | 75 | 139 | 0.0 | 2.0 | 0.00 | 0.00 | 0.00 | 90 | 1008.8 |
| 20260509135456 | 75 | 139 | 0.0 | 2.0 | 0.00 | 0.00 | 0.00 | 90 | 1009.0 |
| 20260509134957 | 75 | 155 | 0.0 | 2.0 | 0.00 | 0.00 | 0.00 | 90 | 1009.2 |
| 20260509134510 | 75 | 216 | 0.0 | 2.0 | 0.00 | 0.00 | 0.00 | 90 | 1009.2 |
| 20260509133011 | 75 | 160 | 0.0 | 3.0 | 0.00 | 0.00 | 0.00 | 90 | 1009.3 |
| 20260509132455 | 75 | 154 | 0.0 | 1.0 | 0.00 | 0.00 | 0.00 | 91 | 1009.7 |
| 20260509131956 | 75 | 154 | 0.0 | 1.0 | 0.00 | 0.00 | 0.00 | 91 | 1010.0 |
| 20260509131510 | 75 | 154 | 0.0 | 1.0 | 0.00 | 0.00 | 0.00 | 91 | 1009.9 |
| 20260509130957 | 75 | 154 | 1.0 | 2.0 | 0.00 | 0.00 | 0.00 | 91 | 1009.8 |
| 20260509130456 | 74 | 154 | 1.0 | 3.0 | 0.00 | 0.00 | 0.00 | 91 | 1009.9 |
| 20260509130022 | 74 | 173 | 1.0 | 3.0 | 0.00 | 0.00 | 0.00 | 91 | 1009.8 |
| 20260509125456 | 74 | 193 | 0.0 | 1.0 | 0.00 | 0.00 | 0.00 | 91 | 1009.7 |
| 20260509124957 | 74 | 193 | 0.0 | 1.0 | 0.00 | 0.00 | 0.00 | 92 | 1009.6 |
| 20260509124511 | 74 | 193 | 0.0 | 2.0 | 0.00 | 0.00 | 0.00 | 91 | 1009.8 |
| 20260509123957 | 74 | 193 | 0.0 | 2.0 | 0.00 | 0.00 | 0.00 | 92 | 1009.8 |
| 20260509123456 | 73 | 171 | 1.0 | 2.0 | 0.00 | 0.00 | 0.00 | 92 | 1009.6 |
| 20260509123021 | 73 | 148 | 1.0 | 3.0 | 0.00 | 0.00 | 0.00 | 92 | 1009.5 |
| 20260509122457 | 73 | 191 | 1.0 | 3.0 | 0.00 | 0.00 | 0.00 | 92 | 1009.6 |
| 20260509121957 | 73 | 162 | 1.0 | 2.0 | 0.00 | 0.00 | 0.00 | 92 | 1009.5 |
| 20260509121511 | 73 | 178 | 0.0 | 2.0 | 0.00 | 0.00 | 0.00 | 91 | 1009.4 |
| 20260509120957 | 73 | 181 | 0.0 | 2.0 | 0.00 | 0.00 | 0.00 | 92 | 1009.5 |
| 20260509120456 | 73 | 2 | 0.0 | 1.0 | 0.00 | 0.00 | 0.00 | 91 | 1009.3 |
| 20260509120019 | 73 | 2 | 0.0 | 1.0 | 0.00 | 0.00 | 0.00 | 91 | 1009.3 |
| 20260509115456 | 73 | 2 | 0.0 | 0.0 | 0.00 | 0.00 | 0.00 | 91 | 1009.1 |
| 20260509114957 | 73 | 2 | 0.0 | 1.0 | 0.00 | 0.00 | 0.00 | 91 | 1009.1 |
| 20260509114513 | 73 | 2 | 0.0 | 1.0 | 0.00 | 0.00 | 0.00 | 91 | 1009.2 |
| 20260509113958 | 73 | 2 | 0.0 | 0.0 | 0.00 | 0.00 | 0.00 | 91 | 1009.2 |
| 20260509113457 | 73 | 2 | 0.0 | 1.0 | 0.00 | 0.00 | 0.00 | 91 | 1009.3 |
| 20260509112457 | 73 | 2 | 1.0 | 3.0 | 0.00 | 0.00 | 0.00 | 91 | 1009.7 |
| 20260509111957 | 73 | 21 | 0.0 | 3.0 | 0.00 | 0.00 | 0.00 | 91 | 1009.7 |
| 20260509111511 | 73 | 29 | 0.0 | 1.0 | 0.00 | 0.00 | 0.00 | 91 | 1009.5 |
| 20260509110957 | 73 | 29 | 1.0 | 2.0 | 0.00 | 0.00 | 0.00 | 91 | 1009.3 |
| 20260509110511 | 73 | 29 | 1.0 | 4.0 | 0.00 | 0.00 | 0.00 | 91 | 1009.4 |
| 20260509110021 | 73 | 353 | 1.0 | 3.0 | 0.00 | 0.00 | 0.00 | 91 | 1009.6 |
| 20260509105455 | 73 | 19 | 1.0 | 3.0 | 0.00 | 0.00 | 0.00 | 91 | 1009.5 |
| 20260509104956 | 73 | 19 | 1.0 | 4.0 | 0.00 | 0.00 | 0.00 | 91 | 1009.2 |
| 20260509104510 | 72 | 10 | 1.0 | 4.0 | 0.00 | 0.00 | 0.00 | 91 | 1009.0 |
| 20260509103956 | 72 | 17 | 0.0 | 1.0 | 0.00 | 0.00 | 0.00 | 91 | 1008.9 |
| 20260509103011 | 73 | 135 | 0.0 | 1.0 | 0.00 | 0.00 | 0.00 | 91 | 1008.9 |
| 20260509101956 | 73 | 135 | 0.0 | 1.0 | 0.00 | 0.00 | 0.00 | 91 | 1008.9 |
| 20260509101510 | 73 | 135 | 0.0 | 1.0 | 0.00 | 0.00 | 0.00 | 91 | 1008.8 |
| 20260509100956 | 73 | 135 | 0.0 | 1.0 | 0.00 | 0.00 | 0.00 | 91 | 1008.5 |
| 20260509100455 | 73 | 135 | 0.0 | 1.0 | 0.00 | 0.00 | 0.00 | 90 | 1008.3 |
| 20260509100024 | 73 | 135 | 0.0 | 1.0 | 0.00 | 0.00 | 0.00 | 90 | 1008.3 |
| 20260509095455 | 73 | 135 | 0.0 | 1.0 | 0.00 | 0.00 | 0.00 | 90 | 1008.4 |
| 20260509094957 | 73 | 135 | 0.0 | 0.0 | 0.00 | 0.00 | 0.00 | 90 | 1008.3 |
| 20260509094510 | 73 | 135 | 0.0 | 0.0 | 0.00 | 0.00 | 0.00 | 90 | 1008.4 |
| 20260509093956 | 73 | 135 | 0.0 | 1.0 | 0.00 | 0.00 | 0.00 | 90 | 1008.3 |
| 20260509093010 | 73 | 135 | 0.0 | 1.0 | 0.00 | 0.00 | 0.00 | 90 | 1008.7 |
| 20260509092456 | 73 | 135 | 0.0 | 1.0 | 0.00 | 0.00 | 0.00 | 90 | 1008.8 |
| 20260509091956 | 73 | 135 | 0.0 | 0.0 | 0.00 | 0.00 | 0.00 | 90 | 1008.9 |
| 20260509091510 | 73 | 135 | 0.0 | 0.0 | 0.00 | 0.00 | 0.00 | 90 | 1009.0 |
| 20260509090956 | 73 | 135 | 0.0 | 0.0 | 0.00 | 0.00 | 0.00 | 90 | 1009.0 |
| 20260509090455 | 73 | 135 | 0.0 | 0.0 | 0.00 | 0.00 | 0.00 | 90 | 1008.9 |
| 20260509090020 | 73 | 135 | 0.0 | 0.0 | 0.00 | 0.00 | 0.00 | 90 | 1008.9 |
| 20260509085456 | 73 | 135 | 0.0 | 1.0 | 0.00 | 0.00 | 0.00 | 90 | 1008.9 |
| 20260509084957 | 73 | 135 | 0.0 | 1.0 | 0.00 | 0.00 | 0.00 | 90 | 1009.0 |
| 20260509084510 | 73 | 135 | 0.0 | 1.0 | 0.00 | 0.00 | 0.00 | 90 | 1009.0 |
| 20260509083956 | 73 | 135 | 0.0 | 1.0 | 0.00 | 0.00 | 0.00 | 90 | 1009.1 |
| 20260509083012 | 73 | 135 | 0.0 | 2.0 | 0.00 | 0.00 | 0.00 | 90 | 1008.9 |
| 20260509082455 | 73 | 135 | 0.0 | 1.0 | 0.00 | 0.00 | 0.00 | 90 | 1008.9 |
| 20260509081956 | 73 | 135 | 0.0 | 1.0 | 0.00 | 0.00 | 0.00 | 90 | 1008.8 |
| 20260509081511 | 73 | 135 | 0.0 | 1.0 | 0.00 | 0.00 | 0.00 | 89 | 1008.8 |
| 20260509080956 | 74 | 135 | 0.0 | 1.0 | 0.00 | 0.00 | 0.00 | 90 | 1008.8 |
| 20260509080456 | 74 | 79 | 0.0 | 1.0 | 0.00 | 0.00 | 0.00 | 89 | 1008.6 |
| 20260509080011 | 74 | 79 | 0.0 | 1.0 | 0.00 | 0.00 | 0.00 | 89 | 1008.7 |
| 20260509075454 | 74 | 79 | 0.0 | 1.0 | 0.00 | 0.00 | 0.00 | 89 | 1008.9 |
| 20260509074955 | 74 | 79 | 0.0 | 2.0 | 0.00 | 0.00 | 0.00 | 89 | 1008.8 |
| 20260509074509 | 74 | 83 | 0.0 | 3.0 | 0.00 | 0.00 | 0.00 | 89 | 1008.9 |
| 20260509073955 | 74 | 112 | 1.0 | 2.0 | 0.00 | 0.00 | 0.00 | 89 | 1008.8 |
| 20260509073010 | 74 | 101 | 0.0 | 2.0 | 0.00 | 0.00 | 0.00 | 89 | 1008.9 |
| 20260509072454 | 74 | 69 | 0.0 | 2.0 | 0.00 | 0.00 | 0.00 | 89 | 1008.9 |
| 20260509071956 | 74 | 77 | 1.0 | 3.0 | 0.00 | 0.00 | 0.00 | 89 | 1008.9 |
| 20260509071509 | 74 | 82 | 1.0 | 3.0 | 0.00 | 0.00 | 0.00 | 89 | 1008.7 |
| 20260509070454 | 74 | 114 | 0.0 | 2.0 | 0.00 | 0.00 | 0.00 | 89 | 1008.9 |
| 20260509070011 | 74 | 88 | 0.0 | 2.0 | 0.00 | 0.00 | 0.00 | 89 | 1008.9 |
| 20260509065455 | 74 | 76 | 0.0 | 2.0 | 0.00 | 0.00 | 0.00 | 89 | 1009.0 |
| 20260509064955 | 74 | 89 | 0.0 | 2.0 | 0.00 | 0.00 | 0.00 | 89 | 1009.0 |
| 20260509064510 | 74 | 120 | 0.0 | 1.0 | 0.00 | 0.00 | 0.00 | 89 | 1009.0 |
| 20260509063957 | 74 | 120 | 0.0 | 1.0 | 0.00 | 0.00 | 0.00 | 89 | 1009.1 |
| 20260509063455 | 73 | 120 | 0.0 | 1.0 | 0.00 | 0.00 | 0.00 | 89 | 1009.1 |
| 20260509063011 | 74 | 120 | 0.0 | 1.0 | 0.00 | 0.00 | 0.00 | 89 | 1009.2 |
| 20260509062454 | 74 | 120 | 0.0 | 1.0 | 0.00 | 0.00 | 0.00 | 89 | 1009.2 |
| 20260509061955 | 74 | 120 | 0.0 | 1.0 | 0.00 | 0.00 | 0.00 | 89 | 1009.2 |
| 20260509061510 | 74 | 120 | 0.0 | 1.0 | 0.00 | 0.00 | 0.00 | 89 | 1009.3 |
| 20260509060956 | 74 | 120 | 0.0 | 1.0 | 0.00 | 0.00 | 0.00 | 89 | 1009.4 |
| 20260509060454 | 74 | 120 | 0.0 | 1.0 | 0.00 | 0.00 | 0.00 | 89 | 1009.5 |
| 20260509060022 | 74 | 120 | 0.0 | 2.0 | 0.00 | 0.00 | 0.00 | 89 | 1009.5 |
| 20260509055459 | 74 | 137 | 1.0 | 2.0 | 0.00 | 0.00 | 0.00 | 89 | 1009.4 |
| 20260509055000 | 74 | 113 | 1.0 | 3.0 | 0.00 | 0.00 | 0.00 | 89 | 1009.4 |
| 20260509054514 | 73 | 67 | 1.0 | 3.0 | 0.00 | 0.00 | 0.00 | 89 | 1009.3 |
| 20260509053500 | 73 | 110 | 1.0 | 3.0 | 0.00 | 0.00 | 0.00 | 89 | 1009.4 |
| 20260509053023 | 73 | 153 | 1.0 | 2.0 | 0.00 | 0.00 | 0.00 | 89 | 1009.5 |
| 20260509052500 | 73 | 121 | 1.0 | 2.0 | 0.00 | 0.00 | 0.00 | 89 | 1009.5 |
| 20260509052000 | 73 | 117 | 1.0 | 3.0 | 0.00 | 0.00 | 0.00 | 89 | 1009.5 |
| 20260509051514 | 73 | 83 | 1.0 | 3.0 | 0.00 | 0.00 | 0.00 | 89 | 1009.5 |
| 20260509051002 | 73 | 121 | 1.0 | 3.0 | 0.00 | 0.00 | 0.00 | 89 | 1009.5 |
| 20260509050459 | 73 | 98 | 1.0 | 3.0 | 0.00 | 0.00 | 0.00 | 89 | 1009.4 |
| 20260509045459 | 73 | 103 | 1.0 | 3.0 | 0.00 | 0.00 | 0.00 | 89 | 1009.6 |
| 20260509045000 | 73 | 110 | 1.0 | 2.0 | 0.00 | 0.00 | 0.00 | 89 | 1009.6 |
| 20260509044514 | 73 | 133 | 0.0 | 2.0 | 0.00 | 0.00 | 0.00 | 89 | 1009.6 |
| 20260509044000 | 73 | 152 | 1.0 | 3.0 | 0.00 | 0.00 | 0.00 | 89 | 1009.7 |
| 20260509043023 | 73 | 109 | 1.0 | 4.0 | 0.00 | 0.00 | 0.00 | 89 | 1009.5 |
| 20260509042459 | 73 | 78 | 1.0 | 5.0 | 0.00 | 0.00 | 0.00 | 89 | 1009.7 |
| 20260509042000 | 73 | 114 | 1.0 | 6.0 | 0.00 | 0.00 | 0.00 | 89 | 1009.7 |
| 20260509041000 | 73 | 140 | 1.0 | 3.0 | 0.00 | 0.00 | 0.00 | 89 | 1009.5 |
| 20260509040459 | 73 | 79 | 1.0 | 4.0 | 0.00 | 0.00 | 0.00 | 89 | 1009.4 |
| 20260509035458 | 73 | 174 | 2.0 | 6.0 | 0.00 | 0.00 | 0.00 | 89 | 1009.2 |
| 20260509034959 | 73 | 152 | 1.0 | 7.0 | 0.00 | 0.00 | 0.00 | 89 | 1009.1 |
| 20260509034513 | 73 | 67 | 1.0 | 7.0 | 0.00 | 0.00 | 0.00 | 89 | 1009.1 |
| 20260509033959 | 73 | 2 | 1.0 | 4.0 | 0.00 | 0.00 | 0.00 | 89 | 1009.2 |
| 20260509033458 | 73 | 101 | 1.0 | 5.0 | 0.00 | 0.00 | 0.00 | 89 | 1009.1 |
| 20260509033020 | 73 | 92 | 2.0 | 6.0 | 0.00 | 0.00 | 0.00 | 89 | 1009.1 |
| 20260509032459 | 73 | 60 | 2.0 | 6.0 | 0.00 | 0.00 | 0.00 | 88 | 1009.0 |
| 20260509031513 | 73 | 73 | 1.0 | 4.0 | 0.00 | 0.00 | 0.00 | 88 | 1009.1 |
| 20260509030959 | 73 | 98 | 2.0 | 7.0 | 0.00 | 0.00 | 0.00 | 88 | 1009.2 |
| 20260509030458 | 73 | 143 | 2.0 | 7.0 | 0.00 | 0.00 | 0.00 | 88 | 1009.1 |
| 20260509030023 | 73 | 100 | 2.0 | 7.0 | 0.00 | 0.00 | 0.00 | 88 | 1009.0 |
| 20260509025000 | 73 | 102 | 2.0 | 7.0 | 0.00 | 0.00 | 0.00 | 87 | 1009.0 |
| 20260509024515 | 73 | 140 | 1.0 | 7.0 | 0.00 | 0.00 | 0.00 | 87 | 1008.9 |
| 20260509024001 | 73 | 90 | 2.0 | 4.0 | 0.00 | 0.00 | 0.00 | 87 | 1008.9 |
| 20260509023459 | 73 | 89 | 2.0 | 4.0 | 0.00 | 0.00 | 0.00 | 87 | 1008.8 |
| 20260509023022 | 73 | 129 | 2.0 | 7.0 | 0.00 | 0.00 | 0.00 | 87 | 1008.8 |
| 20260509022500 | 73 | 64 | 4.0 | 7.0 | 0.00 | 0.00 | 0.00 | 87 | 1008.8 |
| 20260509021959 | 73 | 58 | 1.0 | 6.0 | 0.00 | 0.00 | 0.00 | 87 | 1008.7 |
| 20260509021514 | 73 | 120 | 2.0 | 8.0 | 0.00 | 0.00 | 0.00 | 87 | 1008.6 |
| 20260509021005 | 73 | 172 | 1.0 | 4.0 | 0.00 | 0.00 | 0.00 | 87 | 1008.6 |
| 20260509020504 | 73 | 102 | 1.0 | 5.0 | 0.00 | 0.00 | 0.00 | 87 | 1008.4 |
| 20260509020031 | 73 | 90 | 2.0 | 6.0 | 0.00 | 0.00 | 0.00 | 87 | 1008.5 |
| 20260509015504 | 73 | 133 | 2.0 | 6.0 | 0.00 | 0.00 | 0.00 | 87 | 1008.5 |
| 20260509014519 | 73 | 65 | 1.0 | 6.0 | 0.00 | 0.00 | 0.00 | 87 | 1008.5 |
| 20260509013504 | 73 | 154 | 1.0 | 4.0 | 0.00 | 0.00 | 0.00 | 87 | 1008.5 |
| 20260509013027 | 73 | 156 | 2.0 | 5.0 | 0.00 | 0.00 | 0.00 | 87 | 1008.4 |
| 20260509012504 | 73 | 99 | 1.0 | 5.0 | 0.00 | 0.00 | 0.00 | 87 | 1008.3 |
| 20260509012006 | 73 | 81 | 1.0 | 4.0 | 0.00 | 0.00 | 0.00 | 86 | 1008.4 |
| 20260509011519 | 73 | 80 | 2.0 | 8.0 | 0.00 | 0.00 | 0.00 | 86 | 1008.4 |
| 20260509011004 | 73 | 40 | 2.0 | 8.0 | 0.00 | 0.00 | 0.00 | 86 | 1008.3 |
| 20260509010505 | 73 | 106 | 2.0 | 7.0 | 0.00 | 0.00 | 0.00 | 86 | 1008.2 |
| 20260509010025 | 73 | 80 | 1.0 | 6.0 | 0.00 | 0.00 | 0.00 | 86 | 1008.3 |
| 20260509005503 | 73 | 95 | 2.0 | 6.0 | 0.00 | 0.00 | 0.00 | 86 | 1008.2 |
| 20260509005005 | 73 | 98 | 2.0 | 6.0 | 0.00 | 0.00 | 0.00 | 86 | 1008.2 |
| 20260509004518 | 73 | 121 | 2.0 | 6.0 | 0.00 | 0.00 | 0.00 | 86 | 1008.2 |
| 20260509004004 | 73 | 162 | 1.0 | 4.0 | 0.00 | 0.00 | 0.00 | 86 | 1008.3 |
| 20260509003505 | 73 | 145 | 2.0 | 9.0 | 0.00 | 0.00 | 0.00 | 86 | 1008.2 |
| 20260509003026 | 73 | 41 | 2.0 | 9.0 | 0.00 | 0.00 | 0.00 | 86 | 1008.1 |
| 20260509002503 | 73 | 75 | 2.0 | 6.0 | 0.00 | 0.00 | 0.00 | 86 | 1008.0 |
| 20260509002005 | 73 | 19 | 2.0 | 6.0 | 0.00 | 0.00 | 0.00 | 86 | 1008.2 |
| 20260509001517 | 74 | 22 | 1.0 | 4.0 | 0.00 | 0.00 | 0.00 | 86 | 1008.2 |
| 20260509000504 | 74 | 83 | 1.0 | 4.0 | 0.00 | 0.00 | 0.00 | 85 | 1008.2 |
| 20260509000028 | 74 | 113 | 1.0 | 6.0 | 0.00 | 0.00 | 0.00 | 85 | 1008.4 |
| 20260508235503 | 74 | 17 | 2.0 | 6.0 | 0.00 | 0.00 | 0.00 | 85 | 1008.4 |
| 20260508234518 | 74 | 77 | 2.0 | 9.0 | 0.00 | 0.00 | 0.00 | 84 | 1008.4 |
| 20260508234004 | 74 | 148 | 2.0 | 4.0 | 0.00 | 0.00 | 0.00 | 84 | 1008.4 |
| 20260508233028 | 74 | 136 | 2.0 | 8.0 | 0.00 | 0.00 | 0.00 | 84 | 1008.5 |
| 20260508232503 | 74 | 62 | 2.0 | 6.0 | 0.00 | 0.00 | 0.00 | 84 | 1008.5 |
| 20260508232004 | 74 | 111 | 2.0 | 6.0 | 0.00 | 0.00 | 0.00 | 85 | 1008.5 |
| 20260508231517 | 74 | 85 | 2.0 | 6.0 | 0.00 | 0.00 | 0.00 | 84 | 1008.5 |
| 20260508231004 | 74 | 91 | 2.0 | 7.0 | 0.00 | 0.00 | 0.00 | 84 | 1008.6 |
| 20260508230503 | 74 | 72 | 2.0 | 6.0 | 0.00 | 0.00 | 0.00 | 84 | 1008.6 |